Location: Jeseník
(50.2246°N, 17.1980°E)
Time: 11:50:17
(UTC+01:00)

Tiangong - Visible Passes

Search period start: 28 February 2024 00:00
Search period end: 09 March 2024 00:00
Orbit: 375 x 385 km, 41.5° (Epoch: 28 February)

Date Brightness Start Highest point End Pass type
(mag) Time Alt. Az. Time Alt. Az. Time Alt. Az.
01 Mar 0.2 18:51:22 10° S 18:52:32 12° SSE 18:53:02 11° SSE visible
02 Mar 0.1 19:25:25 10° SW 19:26:52 15° S 19:26:52 15° S visible
03 Mar 0.2 18:24:34 10° SSW 18:26:18 14° SSE 18:28:01 10° SE visible
03 Mar 0.8 20:00:17 10° SW 20:00:36 11° SW 20:00:36 11° SW visible
04 Mar -0.1 18:59:00 10° SW 19:01:06 17° S 19:02:07 15° SSE visible
05 Mar 0.2 19:34:01 10° SW 19:35:41 14° SSW 19:35:41 14° SSW visible
06 Mar 0.1 18:32:26 10° SW 18:34:29 16° S 18:36:31 10° SE visible
07 Mar 0.5 19:07:41 10° SW 19:09:03 12° SSW 19:10:23 10° S visible
